OBJECT C, 61240

Orbit data source: Space-Track

You're viewing an Uncataloged Satellite

Recently launched and/or uncataloged satellites may have evolving metadata. Metadata may include but not limited to: Owner, Maufacturer, Bus, Motor, and Mission.

OBJECT C, 61240 is a satellite owned by Changguang WJ (CN) in SSO that was launched on Tue, 24 Sep 2024 UTC via a LIJIAN-1 launch vehicle from the Jiuquan Satellite Launch Center, China (JSC). Unknown objects in Earth's orbit typically refer to objects detected orbiting the Earth but have not yet been identified or cataloged. These objects could be anything from previously untracked satellites, spent rocket stages, debris from satellite collisions, or even natural meteoroids temporarily captured by Earth's gravity.

Loading next visibility...
Identifier
61240, 2024-174C
Orbit
SSO
Country
Flag of CNCN / PRC
Related business
None
Manufacturer
Changguang WJ
Mission
Operational Commercial Radar Imaging
Bus & Motor
JL-1, Unknown motor
Mass
~250 kg wet, ~250 kg dry
Launch date (UTC)
2024-09-24 (1 year ago)
Launch vehicle
LIJIAN-1
Launch site
Jiuquan Satellite Launch Center, China (JSC)
Object type
Unknown
Shape & HBR
Box + 2 Pan, 0.8 m
Radar Cross Section
0.514 m², Large (>1 m²)

Expand to show TLE details & history
Last TLE update: 7 hours ago

TLE from 7 hours ago
0 OBJECT C
1 61240U 24174C   25261.30710425  .00003948  00000-0  17734-3 0  9998
2 61240  97.4479 267.6884 0015880 107.7159 252.5811 15.21628015 54372
Epoch: 2025-09-18T07:22Z
TLE epoch observation values (Epoch: 2025-09-18T07:22:13.807Z)
Latitude
-0.00008°
Longitude
159.6603°
Altitude
507.308 km
Speed
7.609 km/s
True Right ascension
17h 50m 45s
True Declination
0° 00' 00"
Sunlit
Object was in daylight at epoch
Visualization orbit readout
Latitude
Unknown
Longitude
Unknown
Altitude
Unknown
Speed
Unknown
Apparent Right ascension
Unknown
Apparent Declination
Unknown
Sunlit
N/A
Visualization observer readout
Local Sidereal Time
07:32:49
Azimuth
Unknown
Elevation
Unknown
Doppler factor
Unknown
Orbital elements
Apogee altitude
508.814 km
Perigee altitude
486.976 km
Semi-major axis
6,876.032 km
Eccentricity
0.00159
Inclination
97.4479°
RAAN
267.6884°
Arg. of periapsis
107.7159°
True anomaly
252.40758°
Mean anomaly
252.5811°
Eccentric anomaly
252.49433°
Mean motion
3.80659 °/min
Orbital period
94.57 mins
BSTAR
0.00017734
Loading maneuver chart data...
Computing Atmospheric mass density...
Loading historical data...
Loading historical data...
Loading historical data...
Loading historical data...
Loading historical data...
Loading historical data...
Loading historical data...

Documentation

Showing up to 5 results
|